Погода Соболево

Погода Соболево : погода сейчас, прогноз погоды и архив. Всё, что Вы хотите узнать о погоде Соболево!

Поиск расширенной информации на нашем сайте:

Другие новости

Новости СМИ2

Главная страница сайта

Новости сайта

02.10.2013

Напоминаем, что на нашем новом сайте вы можете получить высокодетализированные прогнозы погоды по пунктам России, СНГ и мира (включающие важные для авиации метеовеличины, такие как направление и скорость ветра, видимость, явления погоды, количество и форма облачности, нижняя и верхняя граница облачности), а также ознакомиться с разнообразными материалами по авиационной метеорологии и подборкой полезных ссылок на эту тему.

Сайт Метеоцентр.Азия посвящён разработке технологий оптимизации авиаметеорологического обслуживания, включая проектирование и перспективное создание нескольких автоматизированных авиаметеорологических систем:
- система выпуска высокодетальных прогностических карт явлений погоды для нижнего воздушного пространства по России и ближнему зарубежью;
- система верификации прогнозов TAF (выпускаемых синоптиками официальных АМСГ РФ и ближнего зарубежья) и AUTOTAF (выпускаемых сайтом Метеоцентр.Азия) - выявление ошибок, онлайн-сопоставление с фактической погодой METAR, автоматическое внесение коррективов в прогнозы при резком отклонении фактической погоды от прогноза, подсчёт оправдываемости прогнозов по элементам и в целом;
- система обработки, анализа и отображения авиаметеорологической информации для применения провайдерами метеорологической информации.

Рекомендуем: Описание бетономешалка сбр 132а цена у нас.

Погода Соболево - сегодня

Время (UTC), дата Ветер
(°,м/с) 
Видим.   Явления Облачность Т
(°С)
Тd
(°С)
f(%) Тe
(°С)
Pmin
(гПа)
dP
(гПа)
Po
(мм)
O2
(г/м3)
Тmin Tmax R s Состояние
почвы
15 20.03.17 010 (С) 20000 м    4/0 верхняя 
[Ci fib]
+2.4 -5.5 56 +3  997.7  0.2  746  299           
18 20.03.17 050 (СВ) 20000 м    4/0 верхняя 
[Ci fib]
+3.3 -4.8 55 +2  998.2  0.2  746  298           
21 20.03.17 060 (СВ) 20000 м    9/0 средняя 
[Ac trans]
+3 -4.5 58 +2  999.1  0.9  747  298  +1.8      62  равномерный
мокрый или
старый снег
100% 
00 21.03.17 050 (СВ) 20000 м    9/0 средняя 
[Ac trans]
+5.6 -5.7 44 +4  999.7  0.7  747  296           
03 21.03.17 060 (СВ) 20000 м    9/0 средняя, верхняя 
[Ac trans|Ci sp]
+7.5 -5.5 39 +7  999.5  -0.2  747  294           
06 21.03.17 060 (СВ) 20000 м    8/0 средняя, верхняя 
[Ac trans|Ci]
+7.3 -5.8 39 +7  1000.1  0.5  748  294           
09 21.03.17 030 (СВ) 20000 м    3/0 верхняя 
[Ci fib]
+0.5 -4.4 70 +1  1001.3  1.2  749  302    +8.8       
12 21.03.17 тихо ()   20000 м    3/0 верхняя 
[Ci fib]
-2.3 -5.4 79 -2  1001.7  0.3  749  305           
15 21.03.17 тихо ()   20000 м    ясно 
-4.6 -6.6 86 -5  1002.1  0.4  749  308           
18 21.03.17 100 (В) 20000 м    3/0 верхняя 
[Ci fib]
-3.3 -6.1 81 -4  1001.9  -0.2  749  306           
21 21.03.17 180 (Ю) 20000 м    8/0 средняя, верхняя 
[Ac trans|Ci sp]
-2.3 -5 82 -2  1002.9  750  305  -5.5      62  равномерный
мокрый или
старый снег
100% 
00 22.03.17 180 (Ю) 10 км    10/10 300 м 
[St]
-1.3 -2.6 91 -3  1003.7  0.9  750  304           
03 22.03.17 200 (Ю) 10 км    9/9 300 м 
[Sc]
-0.5 -2.8 84 -4  1004.1  0.4  751  303           
06 22.03.17 190 (Ю) 10 км    10/10 300 м 
[Sc]
-0.8 -2.7 87 -3  1004.7  0.6  751  304           
09 22.03.17 170 (Ю) 10 км    10/10 300 м 
[St]
-1.4 -2.2 94 -4  1005.5  0.8  752  305    +0.4       
12 22.03.17 160 (Ю) 4000 м  ледяные иглы{ливн. осадки}  10/10 300 м кучево-дожд. 
[Cb cap]
-1.5 -2.2 95 -3  1005.8  0.2  752  305           
15 22.03.17 170 (Ю) 10 км  {ливн. осадки}  10/10 300 м 
[St]
-1.5 -3.3 88 -4  1005.8  752  305           
18 22.03.17 140 (ЮВ) 10 км  {ливн. осадки}  10/10 300 м 
[St]
-1.6 -3.2 89 -3  1006  0.1  752  305           
21 22.03.17 150 (ЮВ) 10 км    10/10 300 м 
[St]
-0.8 -3.5 82 -2  1006.2  0.2  752  304  -2    0.2  59  равномерный
мокрый или
старый снег
100% 
00 23.03.17 170 (Ю) 10 км    10/10 300 м 
[Sc]
+0.7 -4.2 70 1006.5  0.4  753  303           
03 23.03.17 210 (ЮЗ) 10 км    10/10 300 м 
[Sc]
+1.6 -3.8 67 +1  1006.4  0.1  752  302           
06 23.03.17 300 (СЗ) 10 км    6/6 600 м 
[Sc]
+0.5 -4 72 1006.4  752  303           
09 23.03.17 360 (С) 10 км    9/9 600 м 
[Sc]
-1.6 -4.3 82 -3  1007.1  0.7  753  306    +1.6       
12 23.03.17 360 (С) 20000 м    6/0 средняя 
[Ac As]
-4.3 -5.3 93 -4  1007.2  753  309           
15 23.03.17 150 (ЮВ) 20000 м    3/0 средняя 
[Ac trans]
-7.7 -8.6 93 -7  1007.3  -0.1  753  313           
Время (UTC), дата Ветер
(°,м/с) 
Видим.   Явления Облачность Т
(°С)
Тd
(°С)
f(%) Тe
(°С)
Pmin
(гПа)
dP
(гПа)
Po
(мм)
O2
(г/м3)
Тmin Tmax R s Состояние
почвы

Для получения пояснительной информации подведите курсор к названию столбца.

ПОГОДА Соболево - архив

Всё, что Вы хотите узнать о погоде Соболево - удобно и подробно!

Выберите нужную дату (начиная с 1 января 2015* года) и нажмите кнопку "Найти".
Будут отображены архивные сводки погоды по пункту Соболево, начиная с указанной даты.


Отображать данные в формате CSV (для использования в таблицах Excel)


Внимание! Наш архив погоды предназначен исключительно для личного некоммерческого использования в познавательных целях. Если Вам необходимы официальные справки о состоянии погоды (для производственных, юридических, коммерческих и т.п. целей), обращайтесь в органы Росгидромета.

*Примечание: данная дата относится к архиву по метеостанциям СССР (Россия, СНГ, Балтия).
Архив по метеостанциям Зарубежной Европы и Азии (кроме Китая) хранится 10 дней, по другим регионам земного шара (Китай, Африка, Америка, Австралия, Океания) - 1 день.

Соболево - район местоположения метеостанции


Название, широта, долгота, высота метеостанции:
Соболево 54.30°ш. 155.93°д. 14 м над ур. моря [Российская Федерация]

Дополнительная информация

В oтличие oт бoльшинства пoгoдных сайтoв мы публикуем пoдрoбную метеoинфoрмацию в детальнoм прoфессиoнальнoм фoрмате.

Характеристики температуры и влажнoсти вoздуха измеряются на высoте 2 м в тени вдали oт зданий и деревьев.
Скoрoсть ветра измеряется на высoте 10 м (на урoвне рoста челoвека скoрoсть ветра ниже в 1.5-2 раза). Если метеoстанция нахoдится в гoрoде или в лесу, тo скoрoсть ветра занижена на 2-4 м/с пo сравнению с oткрытым местoм. Скoрoсть ветра над акватoриями крупных рек и oзёр, а также на вершинах хoлмoв на 2-5 м/с выше, чем в oбычных услoвиях.
Атмoсфернoе давление в разных тoчках местнoсти мoжет значительнo oтличаться oт давления на метеoстанции, в зависимoсти oт услoвий рельефа (при пoдъёме на 10 м давление пoнижается примернo на 1 мм рт.ст.).